User: anonymous   Login
Location: ????????
(54.8751°N, 38.5756°E)
Time: 15:01:37
(UTC+00:00)
Language:

Cosmos 921 Rocket - Orbit

View from above orbital plane
View from above orbital plane
View from above satellite
View from above satellite

Ground track
Ground track

The orbit data is extracted from the following two-line orbital elements,

1 10096U 77055B   24176.94441575  .00000786  00000-0  81545-4 0  9997
2 10096  75.8334 121.3793 0041073 151.8967 208.4455 14.90369630543748
Epoch (UTC): 24 June 2024 22:39:57
Eccentricity: 0.0041073
inclination: 75.8334°
perigee height: 568 km
apogee height: 625 km
right ascension of ascending node: 121.3793°
argument of perigee: 151.8967°
revolutions per day: 14.90369630
mean anomaly at epoch: 208.4455°
orbit number at epoch: 54374

The dashed part of the orbit path shows where the satellite is in the earth's shadow,  

DLR